| time (UTC) | temp F | wind direction | speed MPH | gust MPH | rain 1hr in | rain 24hr in | rain mn in | humidity % | barometer mb |
| 20260510235036 | 89 | 123 | 5.0 | 12.0 | 0.00 | 0.00 | 0.00 | 58 | 1015.0 |
| 20260510234544 | 89 | 172 | 6.0 | 12.0 | 0.00 | 0.00 | 0.00 | 58 | 1015.0 |
| 20260510234036 | 90 | 113 | 5.0 | 13.0 | 0.00 | 0.00 | 0.00 | 57 | 1014.9 |
| 20260510233536 | 90 | 108 | 5.0 | 13.0 | 0.00 | 0.00 | 0.00 | 57 | 1014.8 |
| 20260510233043 | 90 | 132 | 4.0 | 17.0 | 0.00 | 0.00 | 0.00 | 57 | 1014.8 |
| 20260510232539 | 91 | 62 | 7.0 | 17.0 | 0.00 | 0.00 | 0.00 | 56 | 1014.8 |
| 20260510232040 | 91 | 157 | 5.0 | 16.0 | 0.00 | 0.00 | 0.00 | 55 | 1014.9 |
| 20260510231541 | 91 | 76 | 5.0 | 17.0 | 0.00 | 0.00 | 0.00 | 54 | 1014.8 |
| 20260510231037 | 91 | 97 | 5.0 | 17.0 | 0.00 | 0.00 | 0.00 | 55 | 1014.7 |
| 20260510230536 | 92 | 161 | 4.0 | 13.0 | 0.00 | 0.00 | 0.00 | 53 | 1014.9 |
| 20260510230048 | 92 | 98 | 5.0 | 15.0 | 0.00 | 0.00 | 0.00 | 54 | 1014.8 |
| 20260510225536 | 92 | 187 | 8.0 | 15.0 | 0.00 | 0.00 | 0.00 | 53 | 1014.8 |
| 20260510225037 | 92 | 144 | 6.0 | 14.0 | 0.00 | 0.00 | 0.00 | 53 | 1014.9 |
| 20260510224545 | 92 | 136 | 4.0 | 13.0 | 0.00 | 0.00 | 0.00 | 52 | 1015.0 |
| 20260510224035 | 93 | 145 | 3.0 | 13.0 | 0.00 | 0.00 | 0.00 | 50 | 1015.0 |
| 20260510223538 | 93 | 132 | 5.0 | 13.0 | 0.00 | 0.00 | 0.00 | 51 | 1015.1 |
| 20260510223044 | 93 | 159 | 3.0 | 11.0 | 0.00 | 0.00 | 0.00 | 52 | 1015.2 |
| 20260510222536 | 93 | 86 | 6.0 | 11.0 | 0.00 | 0.00 | 0.00 | 52 | 1015.2 |
| 20260510222036 | 93 | 65 | 4.0 | 12.0 | 0.00 | 0.00 | 0.00 | 52 | 1015.3 |
| 20260510221549 | 93 | 69 | 5.0 | 12.0 | 0.00 | 0.00 | 0.00 | 52 | 1015.4 |
| 20260510221037 | 93 | 82 | 3.0 | 11.0 | 0.00 | 0.00 | 0.00 | 52 | 1015.4 |
| 20260510220536 | 93 | 77 | 2.0 | 15.0 | 0.00 | 0.00 | 0.00 | 53 | 1015.5 |
| 20260510220041 | 93 | 84 | 5.0 | 15.0 | 0.00 | 0.00 | 0.00 | 52 | 1015.5 |
| 20260510215535 | 93 | 161 | 4.0 | 12.0 | 0.00 | 0.00 | 0.00 | 52 | 1015.5 |
| 20260510215036 | 93 | 92 | 6.0 | 12.0 | 0.00 | 0.00 | 0.00 | 53 | 1015.6 |
| 20260510214549 | 93 | 175 | 6.0 | 13.0 | 0.00 | 0.00 | 0.00 | 52 | 1015.6 |
| 20260510214036 | 93 | 75 | 5.0 | 13.0 | 0.00 | 0.00 | 0.00 | 52 | 1015.7 |
| 20260510213536 | 93 | 76 | 6.0 | 12.0 | 0.00 | 0.00 | 0.00 | 53 | 1015.7 |
| 20260510213056 | 93 | 130 | 6.0 | 13.0 | 0.00 | 0.00 | 0.00 | 53 | 1015.8 |
| 20260510212536 | 93 | 114 | 5.0 | 16.0 | 0.00 | 0.00 | 0.00 | 54 | 1015.9 |
| 20260510212037 | 93 | 63 | 6.0 | 16.0 | 0.00 | 0.00 | 0.00 | 54 | 1016.0 |
| 20260510211550 | 93 | 155 | 8.0 | 15.0 | 0.00 | 0.00 | 0.00 | 55 | 1016.0 |
| 20260510211036 | 93 | 163 | 7.0 | 16.0 | 0.00 | 0.00 | 0.00 | 54 | 1016.0 |
| 20260510210536 | 93 | 158 | 8.0 | 16.0 | 0.00 | 0.00 | 0.00 | 53 | 1016.1 |
| 20260510210049 | 93 | 163 | 5.0 | 15.0 | 0.00 | 0.00 | 0.00 | 54 | 1016.2 |
| 20260510205537 | 92 | 161 | 6.0 | 15.0 | 0.00 | 0.00 | 0.00 | 55 | 1016.2 |
| 20260510205036 | 92 | 125 | 6.0 | 12.0 | 0.00 | 0.00 | 0.00 | 56 | 1016.1 |
| 20260510204558 | 92 | 86 | 4.0 | 11.0 | 0.00 | 0.00 | 0.00 | 56 | 1016.2 |
| 20260510204039 | 92 | 63 | 6.0 | 11.0 | 0.00 | 0.00 | 0.00 | 56 | 1016.3 |
| 20260510203536 | 92 | 175 | 5.0 | 11.0 | 0.00 | 0.00 | 0.00 | 55 | 1016.4 |
| 20260510203046 | 92 | 166 | 5.0 | 15.0 | 0.00 | 0.00 | 0.00 | 55 | 1016.5 |
| 20260510202538 | 92 | 92 | 2.0 | 15.0 | 0.00 | 0.00 | 0.00 | 58 | 1016.4 |
| 20260510202035 | 92 | 119 | 5.0 | 15.0 | 0.00 | 0.00 | 0.00 | 56 | 1016.4 |
| 20260510201547 | 92 | 98 | 6.0 | 15.0 | 0.00 | 0.00 | 0.00 | 56 | 1016.4 |
| 20260510201038 | 92 | 111 | 5.0 | 13.0 | 0.00 | 0.00 | 0.00 | 57 | 1016.5 |
| 20260510200537 | 92 | 65 | 4.0 | 13.0 | 0.00 | 0.00 | 0.00 | 56 | 1016.6 |
| 20260510200042 | 92 | 78 | 5.0 | 11.0 | 0.00 | 0.00 | 0.00 | 57 | 1016.7 |
| 20260510195536 | 92 | 146 | 4.0 | 14.0 | 0.00 | 0.00 | 0.00 | 60 | 1016.6 |
| 20260510195042 | 91 | 84 | 5.0 | 14.0 | 0.00 | 0.00 | 0.00 | 58 | 1016.7 |
| 20260510194543 | 92 | 166 | 5.0 | 13.0 | 0.00 | 0.00 | 0.00 | 58 | 1016.6 |
| 20260510194039 | 91 | 92 | 5.0 | 12.0 | 0.00 | 0.00 | 0.00 | 57 | 1016.9 |
| 20260510193537 | 91 | 98 | 3.0 | 14.0 | 0.00 | 0.00 | 0.00 | 60 | 1016.9 |
| 20260510193040 | 91 | 82 | 4.0 | 20.0 | 0.00 | 0.00 | 0.00 | 59 | 1017.1 |
| 20260510192536 | 91 | 98 | 6.0 | 20.0 | 0.00 | 0.00 | 0.00 | 59 | 1017.2 |
| 20260510192039 | 91 | 104 | 4.0 | 12.0 | 0.00 | 0.00 | 0.00 | 60 | 1017.2 |
| 20260510191554 | 90 | 145 | 5.0 | 11.0 | 0.00 | 0.00 | 0.00 | 59 | 1017.2 |
| 20260510191035 | 90 | 145 | 3.0 | 11.0 | 0.00 | 0.00 | 0.00 | 61 | 1017.3 |
| 20260510190537 | 90 | 82 | 2.0 | 11.0 | 0.00 | 0.00 | 0.00 | 61 | 1017.4 |
| 20260510190049 | 90 | 63 | 4.0 | 13.0 | 0.00 | 0.00 | 0.00 | 61 | 1017.4 |
| 20260510185537 | 90 | 98 | 6.0 | 13.0 | 0.00 | 0.00 | 0.00 | 60 | 1017.4 |
| 20260510185036 | 90 | 76 | 5.0 | 11.0 | 0.00 | 0.00 | 0.00 | 60 | 1017.4 |
| 20260510184541 | 90 | 66 | 4.0 | 10.0 | 0.00 | 0.00 | 0.00 | 60 | 1017.5 |
| 20260510184038 | 90 | 103 | 3.0 | 10.0 | 0.00 | 0.00 | 0.00 | 60 | 1017.5 |
| 20260510183539 | 90 | 92 | 3.0 | 11.0 | 0.00 | 0.00 | 0.00 | 62 | 1017.6 |
| 20260510183049 | 89 | 128 | 6.0 | 11.0 | 0.00 | 0.00 | 0.00 | 61 | 1017.6 |
| 20260510182538 | 89 | 125 | 4.0 | 10.0 | 0.00 | 0.00 | 0.00 | 63 | 1017.6 |
| 20260510182035 | 90 | 109 | 4.0 | 10.0 | 0.00 | 0.00 | 0.00 | 62 | 1017.7 |
| 20260510181548 | 90 | 57 | 5.0 | 11.0 | 0.00 | 0.00 | 0.00 | 60 | 1017.7 |
| 20260510181037 | 90 | 0 | 2.0 | 12.0 | 0.00 | 0.00 | 0.00 | 63 | 1017.8 |
| 20260510180536 | 89 | 148 | 5.0 | 12.0 | 0.00 | 0.00 | 0.00 | 62 | 1017.9 |
| 20260510180048 | 89 | 82 | 4.0 | 11.0 | 0.00 | 0.00 | 0.00 | 62 | 1017.8 |
| 20260510175537 | 89 | 59 | 3.0 | 10.0 | 0.00 | 0.00 | 0.00 | 64 | 1017.9 |
| 20260510175036 | 88 | 55 | 2.0 | 12.0 | 0.00 | 0.00 | 0.00 | 64 | 1017.8 |
| 20260510174552 | 88 | 93 | 4.0 | 12.0 | 0.00 | 0.00 | 0.00 | 64 | 1017.9 |
| 20260510174036 | 88 | 80 | 7.0 | 12.0 | 0.00 | 0.00 | 0.00 | 65 | 1018.0 |
| 20260510173537 | 87 | 77 | 3.0 | 12.0 | 0.00 | 0.00 | 0.00 | 66 | 1017.9 |
| 20260510173105 | 87 | 0 | 5.0 | 14.0 | 0.00 | 0.00 | 0.00 | 66 | 1017.9 |
| 20260510172539 | 87 | 98 | 6.0 | 14.0 | 0.00 | 0.00 | 0.00 | 65 | 1017.9 |
| 20260510172036 | 87 | 87 | 6.0 | 11.0 | 0.00 | 0.00 | 0.00 | 66 | 1018.0 |
| 20260510171550 | 87 | 126 | 4.0 | 12.0 | 0.00 | 0.00 | 0.00 | 66 | 1018.1 |
| 20260510171037 | 87 | 80 | 3.0 | 12.0 | 0.00 | 0.00 | 0.00 | 66 | 1018.1 |
| 20260510170536 | 87 | 57 | 4.0 | 12.0 | 0.00 | 0.00 | 0.00 | 67 | 1018.0 |
| 20260510170051 | 86 | 72 | 6.0 | 11.0 | 0.00 | 0.00 | 0.00 | 68 | 1018.1 |
| 20260510165536 | 86 | 78 | 5.0 | 11.0 | 0.00 | 0.00 | 0.00 | 67 | 1017.9 |
| 20260510165036 | 86 | 80 | 5.0 | 11.0 | 0.00 | 0.00 | 0.00 | 67 | 1017.9 |
| 20260510164606 | 86 | 119 | 3.0 | 10.0 | 0.00 | 0.00 | 0.00 | 68 | 1017.9 |
| 20260510164036 | 86 | 173 | 2.0 | 10.0 | 0.00 | 0.00 | 0.00 | 70 | 1017.8 |
| 20260510163539 | 85 | 105 | 3.0 | 12.0 | 0.00 | 0.00 | 0.00 | 71 | 1017.8 |
| 20260510163046 | 85 | 85 | 3.0 | 12.0 | 0.00 | 0.00 | 0.00 | 71 | 1017.8 |
| 20260510162535 | 84 | 88 | 5.0 | 12.0 | 0.00 | 0.00 | 0.00 | 72 | 1017.8 |
| 20260510162037 | 84 | 82 | 4.0 | 11.0 | 0.00 | 0.00 | 0.00 | 72 | 1017.8 |
| 20260510161541 | 83 | 82 | 4.0 | 10.0 | 0.00 | 0.00 | 0.00 | 73 | 1017.8 |
| 20260510161036 | 83 | 78 | 5.0 | 10.0 | 0.00 | 0.00 | 0.00 | 73 | 1017.7 |
| 20260510160537 | 82 | 95 | 4.0 | 8.0 | 0.00 | 0.00 | 0.00 | 75 | 1017.7 |
| 20260510160056 | 82 | 93 | 3.0 | 8.0 | 0.00 | 0.00 | 0.00 | 76 | 1017.8 |
| 20260510155536 | 81 | 65 | 4.0 | 8.0 | 0.00 | 0.00 | 0.00 | 75 | 1017.8 |
| 20260510155036 | 81 | 76 | 2.0 | 9.0 | 0.00 | 0.00 | 0.00 | 76 | 1017.8 |
| 20260510154550 | 81 | 73 | 4.0 | 9.0 | 0.00 | 0.00 | 0.00 | 76 | 1017.7 |
| 20260510154036 | 81 | 72 | 2.0 | 10.0 | 0.00 | 0.00 | 0.00 | 78 | 1017.6 |
| 20260510153536 | 80 | 98 | 3.0 | 10.0 | 0.00 | 0.00 | 0.00 | 76 | 1017.6 |
| 20260510153054 | 81 | 69 | 5.0 | 9.0 | 0.00 | 0.00 | 0.00 | 76 | 1017.6 |
| 20260510152536 | 81 | 69 | 4.0 | 8.0 | 0.00 | 0.00 | 0.00 | 77 | 1017.5 |
| 20260510152035 | 81 | 118 | 1.0 | 8.0 | 0.00 | 0.00 | 0.00 | 78 | 1017.3 |
| 20260510151549 | 81 | 0 | 1.0 | 10.0 | 0.00 | 0.00 | 0.00 | 78 | 1017.3 |
| 20260510151036 | 80 | 150 | 5.0 | 10.0 | 0.00 | 0.00 | 0.00 | 78 | 1017.3 |
| 20260510150538 | 80 | 160 | 1.0 | 5.0 | 0.00 | 0.00 | 0.00 | 79 | 1017.1 |
| 20260510150046 | 80 | 76 | 1.0 | 5.0 | 0.00 | 0.00 | 0.00 | 79 | 1017.1 |
| 20260510145535 | 79 | 0 | 0.0 | 4.0 | 0.00 | 0.00 | 0.00 | 81 | 1017.0 |
| 20260510145036 | 79 | 102 | 1.0 | 4.0 | 0.00 | 0.00 | 0.00 | 83 | 1017.0 |
| 20260510144553 | 78 | 0 | 0.0 | 8.0 | 0.00 | 0.00 | 0.00 | 85 | 1016.8 |
| 20260510144037 | 77 | 0 | 2.0 | 8.0 | 0.00 | 0.00 | 0.00 | 85 | 1016.7 |
| 20260510143536 | 76 | 0 | 0.0 | 5.0 | 0.00 | 0.00 | 0.00 | 88 | 1016.7 |
| 20260510143041 | 75 | 180 | 1.0 | 5.0 | 0.00 | 0.00 | 0.00 | 88 | 1016.6 |
| 20260510142536 | 75 | 0 | 0.0 | 5.0 | 0.00 | 0.00 | 0.00 | 89 | 1016.6 |
| 20260510142036 | 75 | 0 | 0.0 | 8.0 | 0.00 | 0.00 | 0.00 | 89 | 1016.6 |
| 20260510141546 | 74 | 151 | 2.0 | 8.0 | 0.00 | 0.00 | 0.00 | 89 | 1016.6 |
| 20260510141035 | 74 | 167 | 3.0 | 7.0 | 0.00 | 0.00 | 0.00 | 89 | 1016.7 |
| 20260510140536 | 74 | 190 | 1.0 | 5.0 | 0.00 | 0.00 | 0.00 | 90 | 1016.5 |
| 20260510140046 | 74 | 151 | 1.0 | 5.0 | 0.00 | 0.00 | 0.00 | 91 | 1016.5 |
| 20260510135535 | 74 | 190 | 0.0 | 4.0 | 0.00 | 0.04 | 0.00 | 92 | 1016.4 |
| 20260510135036 | 73 | 0 | 1.0 | 6.0 | 0.00 | 0.04 | 0.00 | 92 | 1016.4 |
| 20260510134554 | 73 | 0 | 1.0 | 6.0 | 0.00 | 0.04 | 0.00 | 92 | 1016.3 |
| 20260510134037 | 73 | 0 | 0.0 | 6.0 | 0.00 | 0.04 | 0.00 | 92 | 1016.3 |
| 20260510133539 | 73 | 186 | 1.0 | 6.0 | 0.00 | 0.04 | 0.00 | 92 | 1016.3 |
| 20260510133041 | 73 | 0 | 0.0 | 5.0 | 0.00 | 0.04 | 0.00 | 93 | 1016.2 |
| 20260510132536 | 72 | 0 | 0.0 | 5.0 | 0.00 | 0.04 | 0.00 | 93 | 1016.0 |
| 20260510132036 | 72 | 0 | 0.0 | 5.0 | 0.00 | 0.04 | 0.00 | 93 | 1015.9 |
| 20260510131551 | 72 | 188 | 1.0 | 7.0 | 0.00 | 0.04 | 0.00 | 93 | 1015.9 |
| 20260510131036 | 72 | 162 | 0.0 | 7.0 | 0.00 | 0.04 | 0.00 | 93 | 1015.7 |
| 20260510130536 | 72 | 0 | 2.0 | 7.0 | 0.00 | 0.04 | 0.00 | 93 | 1015.7 |
| 20260510130051 | 72 | 0 | 1.0 | 6.0 | 0.00 | 0.04 | 0.00 | 93 | 1015.6 |
| 20260510125536 | 72 | 0 | 0.0 | 5.0 | 0.00 | 0.04 | 0.00 | 93 | 1015.5 |
| 20260510125036 | 71 | 0 | 0.0 | 4.0 | 0.00 | 0.04 | 0.00 | 93 | 1015.5 |
| 20260510124551 | 71 | 0 | 0.0 | 2.0 | 0.00 | 0.04 | 0.00 | 93 | 1015.3 |
| 20260510124039 | 71 | 0 | 0.0 | 2.0 | 0.00 | 0.04 | 0.00 | 93 | 1015.5 |
| 20260510123537 | 71 | 0 | 0.0 | 1.0 | 0.00 | 0.04 | 0.00 | 94 | 1015.4 |
| 20260510123042 | 71 | 0 | 0.0 | 1.0 | 0.00 | 0.04 | 0.00 | 93 | 1015.4 |
| 20260510122536 | 71 | 0 | 0.0 | 1.0 | 0.00 | 0.04 | 0.00 | 93 | 1015.3 |
| 20260510122036 | 70 | 194 | 0.0 | 3.0 | 0.00 | 0.04 | 0.00 | 94 | 1015.4 |
| 20260510121542 | 70 | 0 | 0.0 | 4.0 | 0.00 | 0.04 | 0.00 | 93 | 1015.4 |
| 20260510121036 | 70 | 0 | 0.0 | 4.0 | 0.00 | 0.04 | 0.00 | 93 | 1015.3 |
| 20260510120537 | 70 | 0 | 0.0 | 4.0 | 0.00 | 0.04 | 0.00 | 93 | 1015.4 |
| 20260510120040 | 69 | 0 | 0.0 | 2.0 | 0.00 | 0.04 | 0.00 | 93 | 1015.3 |
| 20260510115534 | 69 | 0 | 0.0 | 2.0 | 0.00 | 0.04 | 0.00 | 93 | 1015.2 |
| 20260510115034 | 69 | 0 | 0.0 | 1.0 | 0.00 | 0.04 | 0.00 | 93 | 1015.1 |
| 20260510114550 | 69 | 0 | 0.0 | 1.0 | 0.00 | 0.04 | 0.00 | 93 | 1015.3 |
| 20260510114035 | 68 | 0 | 0.0 | 0.0 | 0.00 | 0.04 | 0.00 | 93 | 1015.3 |
| 20260510113534 | 68 | 0 | 0.0 | 1.0 | 0.00 | 0.04 | 0.00 | 92 | 1015.2 |
| 20260510113045 | 68 | 0 | 0.0 | 1.0 | 0.00 | 0.04 | 0.00 | 92 | 1015.4 |
| 20260510112534 | 68 | 0 | 0.0 | 0.0 | 0.00 | 0.04 | 0.00 | 91 | 1015.3 |
| 20260510112035 | 68 | 0 | 0.0 | 0.0 | 0.00 | 0.04 | 0.00 | 90 | 1015.3 |
| 20260510111542 | 68 | 0 | 0.0 | 0.0 | 0.00 | 0.04 | 0.00 | 91 | 1015.3 |
| 20260510111034 | 68 | 0 | 0.0 | 0.0 | 0.00 | 0.04 | 0.00 | 91 | 1015.3 |
| 20260510110535 | 68 | 0 | 0.0 | 0.0 | 0.00 | 0.04 | 0.00 | 90 | 1015.3 |
| 20260510110042 | 68 | 0 | 0.0 | 0.0 | 0.00 | 0.04 | 0.00 | 90 | 1015.3 |
| 20260510105534 | 69 | 0 | 0.0 | 0.0 | 0.00 | 0.04 | 0.00 | 90 | 1015.3 |
| 20260510105033 | 69 | 0 | 0.0 | 0.0 | 0.00 | 0.04 | 0.00 | 90 | 1015.3 |
| 20260510104605 | 69 | 0 | 0.0 | 0.0 | 0.00 | 0.04 | 0.00 | 90 | 1015.1 |
| 20260510104037 | 69 | 0 | 0.0 | 0.0 | 0.00 | 0.04 | 0.00 | 90 | 1015.1 |
| 20260510103534 | 69 | 0 | 0.0 | 0.0 | 0.00 | 0.04 | 0.00 | 89 | 1015.2 |
| 20260510103052 | 69 | 0 | 0.0 | 0.0 | 0.00 | 0.04 | 0.00 | 89 | 1015.3 |
| 20260510102534 | 69 | 0 | 0.0 | 0.0 | 0.00 | 0.04 | 0.00 | 89 | 1015.2 |
| 20260510102033 | 69 | 0 | 0.0 | 1.0 | 0.00 | 0.04 | 0.00 | 89 | 1015.3 |
| 20260510101546 | 69 | 0 | 0.0 | 1.0 | 0.00 | 0.04 | 0.00 | 89 | 1015.3 |
| 20260510101034 | 69 | 0 | 0.0 | 0.0 | 0.00 | 0.04 | 0.00 | 89 | 1015.3 |
| 20260510100535 | 70 | 0 | 0.0 | 4.0 | 0.00 | 0.04 | 0.00 | 88 | 1015.3 |
| 20260510100053 | 70 | 0 | 0.0 | 4.0 | 0.00 | 0.04 | 0.00 | 88 | 1015.3 |
| 20260510095535 | 70 | 161 | 0.0 | 3.0 | 0.00 | 0.04 | 0.00 | 88 | 1015.2 |
| 20260510095034 | 70 | 0 | 0.0 | 3.0 | 0.00 | 0.04 | 0.00 | 88 | 1015.3 |
| 20260510094546 | 70 | 0 | 0.0 | 3.0 | 0.00 | 0.04 | 0.00 | 88 | 1015.5 |
| 20260510094036 | 70 | 0 | 0.0 | 3.0 | 0.00 | 0.04 | 0.00 | 87 | 1015.5 |
| 20260510093534 | 70 | 0 | 0.0 | 3.0 | 0.00 | 0.04 | 0.00 | 87 | 1015.4 |
| 20260510093042 | 70 | 0 | 0.0 | 2.0 | 0.00 | 0.04 | 0.00 | 87 | 1015.3 |
| 20260510092536 | 70 | 0 | 0.0 | 2.0 | 0.00 | 0.04 | 0.00 | 86 | 1015.3 |
| 20260510092034 | 70 | 0 | 0.0 | 2.0 | 0.00 | 0.04 | 0.00 | 86 | 1015.2 |
| 20260510091537 | 70 | 0 | 0.0 | 1.0 | 0.00 | 0.04 | 0.00 | 86 | 1015.2 |
| 20260510091034 | 70 | 0 | 0.0 | 0.0 | 0.00 | 0.04 | 0.00 | 86 | 1015.1 |
| 20260510090534 | 70 | 0 | 0.0 | 1.0 | 0.00 | 0.04 | 0.00 | 86 | 1015.1 |
| 20260510090045 | 71 | 0 | 0.0 | 1.0 | 0.00 | 0.04 | 0.00 | 86 | 1015.2 |
| 20260510085538 | 71 | 0 | 0.0 | 1.0 | 0.00 | 0.04 | 0.00 | 86 | 1015.1 |
| 20260510085035 | 71 | 0 | 0.0 | 1.0 | 0.00 | 0.04 | 0.00 | 86 | 1015.0 |
| 20260510084551 | 71 | 0 | 0.0 | 1.0 | 0.00 | 0.04 | 0.00 | 86 | 1015.0 |
| 20260510084036 | 71 | 0 | 0.0 | 6.0 | 0.00 | 0.04 | 0.00 | 86 | 1015.1 |
| 20260510083536 | 71 | 0 | 0.0 | 6.0 | 0.00 | 0.04 | 0.00 | 87 | 1015.2 |
| 20260510083044 | 71 | 0 | 0.0 | 3.0 | 0.00 | 0.04 | 0.00 | 87 | 1015.1 |
| 20260510082536 | 71 | 0 | 0.0 | 1.0 | 0.00 | 0.04 | 0.00 | 86 | 1015.1 |
| 20260510082037 | 71 | 0 | 0.0 | 1.0 | 0.00 | 0.04 | 0.00 | 86 | 1015.1 |
| 20260510081539 | 71 | 0 | 0.0 | 1.0 | 0.00 | 0.04 | 0.00 | 85 | 1015.1 |
| 20260510081037 | 71 | 0 | 0.0 | 0.0 | 0.00 | 0.04 | 0.00 | 85 | 1015.1 |
| 20260510080537 | 71 | 0 | 0.0 | 0.0 | 0.00 | 0.04 | 0.00 | 85 | 1015.1 |
| 20260510080047 | 72 | 0 | 0.0 | 0.0 | 0.00 | 0.04 | 0.00 | 85 | 1015.0 |
| 20260510075536 | 72 | 0 | 0.0 | 0.0 | 0.00 | 0.04 | 0.00 | 85 | 1015.0 |
| 20260510075036 | 72 | 0 | 0.0 | 0.0 | 0.00 | 0.04 | 0.00 | 85 | 1014.9 |
| 20260510074616 | 72 | 0 | 0.0 | 0.0 | 0.00 | 0.04 | 0.00 | 84 | 1015.0 |
| 20260510074036 | 72 | 0 | 0.0 | 1.0 | 0.00 | 0.04 | 0.00 | 84 | 1014.9 |
| 20260510073535 | 72 | 0 | 0.0 | 3.0 | 0.00 | 0.04 | 0.00 | 84 | 1014.8 |
| 20260510073048 | 72 | 0 | 0.0 | 3.0 | 0.00 | 0.04 | 0.00 | 84 | 1014.9 |
| 20260510072536 | 72 | 155 | 0.0 | 3.0 | 0.00 | 0.04 | 0.00 | 84 | 1015.0 |
| 20260510072036 | 72 | 0 | 0.0 | 3.0 | 0.00 | 0.04 | 0.00 | 84 | 1015.0 |
| 20260510071554 | 72 | 0 | 0.0 | 3.0 | 0.00 | 0.04 | 0.00 | 84 | 1015.0 |
| 20260510071038 | 73 | 0 | 0.0 | 3.0 | 0.00 | 0.04 | 0.00 | 83 | 1015.0 |
| 20260510070536 | 73 | 0 | 0.0 | 3.0 | 0.00 | 0.04 | 0.00 | 83 | 1015.1 |
| 20260510070042 | 73 | 0 | 0.0 | 3.0 | 0.00 | 0.04 | 0.00 | 83 | 1015.0 |
| 20260510065536 | 73 | 0 | 0.0 | 3.0 | 0.00 | 0.04 | 0.00 | 83 | 1015.0 |
| 20260510065036 | 73 | 0 | 0.0 | 1.0 | 0.00 | 0.04 | 0.00 | 82 | 1015.1 |
| 20260510064603 | 73 | 0 | 0.0 | 1.0 | 0.00 | 0.04 | 0.00 | 82 | 1015.1 |
| 20260510064036 | 73 | 0 | 0.0 | 2.0 | 0.00 | 0.04 | 0.00 | 82 | 1015.2 |
| 20260510063536 | 74 | 0 | 0.0 | 2.0 | 0.00 | 0.04 | 0.00 | 81 | 1015.1 |
| 20260510063045 | 74 | 0 | 0.0 | 1.0 | 0.00 | 0.04 | 0.00 | 81 | 1015.1 |
| 20260510062536 | 74 | 0 | 0.0 | 0.0 | 0.00 | 0.04 | 0.00 | 81 | 1015.2 |
| 20260510062036 | 74 | 0 | 0.0 | 1.0 | 0.00 | 0.04 | 0.00 | 80 | 1015.3 |
| 20260510061553 | 74 | 0 | 0.0 | 2.0 | 0.00 | 0.04 | 0.00 | 80 | 1015.3 |
| 20260510061037 | 74 | 0 | 0.0 | 2.0 | 0.00 | 0.04 | 0.00 | 80 | 1015.3 |
| 20260510060537 | 74 | 0 | 0.0 | 2.0 | 0.00 | 0.04 | 0.00 | 79 | 1015.3 |
| 20260510060053 | 75 | 0 | 0.0 | 2.0 | 0.00 | 0.04 | 0.00 | 79 | 1015.3 |
| 20260510055601 | 75 | 0 | 0.0 | 5.0 | 0.00 | 0.04 | 0.00 | 79 | 1015.3 |
| 20260510055034 | 75 | 0 | 0.0 | 5.0 | 0.00 | 0.04 | 0.00 | 79 | 1015.3 |
| 20260510054540 | 75 | 169 | 0.0 | 5.0 | 0.00 | 0.04 | 0.00 | 78 | 1015.1 |
| 20260510054034 | 75 | 0 | 0.0 | 5.0 | 0.00 | 0.04 | 0.00 | 78 | 1015.1 |
| 20260510053534 | 75 | 155 | 1.0 | 5.0 | 0.00 | 0.04 | 0.00 | 78 | 1015.2 |
| 20260510053041 | 76 | 0 | 1.0 | 4.0 | 0.00 | 0.04 | 0.00 | 78 | 1015.2 |
| 20260510052534 | 76 | 0 | 0.0 | 3.0 | 0.00 | 0.04 | 0.00 | 78 | 1015.3 |
| 20260510052034 | 76 | 155 | 1.0 | 5.0 | 0.00 | 0.04 | 0.00 | 78 | 1015.3 |
| 20260510051554 | 76 | 155 | 0.0 | 5.0 | 0.00 | 0.04 | 0.00 | 78 | 1015.3 |
| 20260510051033 | 76 | 0 | 0.0 | 5.0 | 0.00 | 0.04 | 0.00 | 77 | 1015.1 |
| 20260510050533 | 76 | 150 | 0.0 | 5.0 | 0.00 | 0.04 | 0.00 | 77 | 1015.1 |
| 20260510050047 | 76 | 151 | 1.0 | 5.0 | 0.00 | 0.04 | 0.00 | 77 | 1015.1 |
| 20260510045535 | 77 | 165 | 1.0 | 7.0 | 0.00 | 0.04 | 0.04 | 76 | 1015.1 |
| 20260510045034 | 77 | 153 | 2.0 | 7.0 | 0.00 | 0.04 | 0.04 | 76 | 1015.1 |
| 20260510044550 | 77 | 134 | 0.0 | 5.0 | 0.00 | 0.04 | 0.04 | 76 | 1015.1 |
| 20260510044034 | 77 | 132 | 0.0 | 4.0 | 0.00 | 0.04 | 0.04 | 76 | 1015.1 |
| 20260510043534 | 77 | 0 | 0.0 | 1.0 | 0.00 | 0.04 | 0.04 | 75 | 1015.0 |
| 20260510043047 | 77 | 0 | 0.0 | 3.0 | 0.00 | 0.04 | 0.04 | 74 | 1014.9 |
| 20260510042535 | 78 | 0 | 0.0 | 4.0 | 0.00 | 0.04 | 0.04 | 74 | 1014.9 |
| 20260510042034 | 78 | 162 | 1.0 | 4.0 | 0.00 | 0.04 | 0.04 | 74 | 1014.9 |
| 20260510041552 | 78 | 0 | 0.0 | 2.0 | 0.00 | 0.04 | 0.04 | 74 | 1014.9 |
| 20260510041034 | 78 | 162 | 0.0 | 3.0 | 0.00 | 0.04 | 0.04 | 73 | 1015.0 |
| 20260510040534 | 78 | 155 | 0.0 | 3.0 | 0.00 | 0.04 | 0.04 | 73 | 1014.9 |
| 20260510040049 | 78 | 0 | 0.0 | 6.0 | 0.00 | 0.04 | 0.04 | 73 | 1014.9 |
| 20260510035533 | 79 | 131 | 0.0 | 7.0 | 0.00 | 0.04 | 0.04 | 73 | 1014.9 |
| 20260510035034 | 79 | 126 | 1.0 | 8.0 | 0.00 | 0.04 | 0.04 | 72 | 1014.7 |
| 20260510034542 | 79 | 155 | 3.0 | 8.0 | 0.00 | 0.04 | 0.04 | 72 | 1014.6 |
| 20260510034034 | 79 | 145 | 2.0 | 6.0 | 0.00 | 0.04 | 0.04 | 72 | 1014.5 |
| 20260510033536 | 79 | 161 | 0.0 | 6.0 | 0.00 | 0.04 | 0.04 | 72 | 1014.6 |
| 20260510033041 | 79 | 0 | 0.0 | 6.0 | 0.00 | 0.04 | 0.04 | 72 | 1014.5 |
| 20260510032534 | 80 | 154 | 1.0 | 7.0 | 0.00 | 0.04 | 0.04 | 72 | 1014.3 |
| 20260510032036 | 80 | 0 | 1.0 | 9.0 | 0.00 | 0.04 | 0.04 | 71 | 1014.4 |
| 20260510031540 | 80 | 0 | 1.0 | 9.0 | 0.00 | 0.04 | 0.04 | 71 | 1014.3 |
| 20260510031035 | 80 | 115 | 2.0 | 9.0 | 0.00 | 0.04 | 0.04 | 71 | 1014.2 |
| 20260510030534 | 80 | 142 | 1.0 | 8.0 | 0.00 | 0.04 | 0.04 | 71 | 1014.1 |
| 20260510030046 | 80 | 0 | 0.0 | 4.0 | 0.00 | 0.04 | 0.04 | 71 | 1014.1 |
| 20260510025534 | 80 | 82 | 1.0 | 4.0 | 0.00 | 0.04 | 0.04 | 70 | 1014.0 |
| 20260510025036 | 80 | 90 | 1.0 | 4.0 | 0.00 | 0.04 | 0.04 | 70 | 1013.9 |
| 20260510024554 | 80 | 0 | 1.0 | 4.0 | 0.00 | 0.04 | 0.04 | 71 | 1013.9 |
| 20260510024035 | 80 | 0 | 1.0 | 4.0 | 0.00 | 0.04 | 0.04 | 71 | 1013.9 |
| 20260510023535 | 81 | 0 | 0.0 | 4.0 | 0.00 | 0.04 | 0.04 | 71 | 1013.8 |
| 20260510023043 | 81 | 92 | 0.0 | 4.0 | 0.00 | 0.04 | 0.04 | 70 | 1013.8 |
| 20260510022536 | 81 | 0 | 0.0 | 4.0 | 0.00 | 0.04 | 0.04 | 70 | 1013.8 |
| 20260510022037 | 81 | 67 | 0.0 | 4.0 | 0.00 | 0.04 | 0.04 | 70 | 1013.7 |
| 20260510021541 | 81 | 107 | 0.0 | 4.0 | 0.00 | 0.04 | 0.04 | 70 | 1013.7 |
| 20260510021037 | 82 | 86 | 0.0 | 2.0 | 0.00 | 0.04 | 0.04 | 69 | 1013.7 |
| 20260510020536 | 82 | 0 | 0.0 | 3.0 | 0.00 | 0.04 | 0.04 | 69 | 1013.6 |
| 20260510020052 | 82 | 0 | 0.0 | 3.0 | 0.00 | 0.04 | 0.04 | 69 | 1013.6 |
| 20260510015536 | 82 | 0 | 0.0 | 3.0 | 0.00 | 0.04 | 0.04 | 68 | 1013.5 |
| 20260510015036 | 83 | 0 | 0.0 | 1.0 | 0.00 | 0.04 | 0.04 | 68 | 1013.4 |
| 20260510014539 | 83 | 0 | 0.0 | 1.0 | 0.00 | 0.04 | 0.04 | 68 | 1013.4 |
| 20260510014036 | 83 | 0 | 0.0 | 2.0 | 0.00 | 0.04 | 0.04 | 67 | 1013.3 |
| 20260510013537 | 84 | 0 | 0.0 | 3.0 | 0.00 | 0.04 | 0.04 | 66 | 1013.1 |
| 20260510013055 | 84 | 0 | 0.0 | 3.0 | 0.00 | 0.04 | 0.04 | 65 | 1013.0 |
| 20260510012539 | 85 | 70 | 0.0 | 2.0 | 0.00 | 0.04 | 0.04 | 65 | 1013.0 |
| 20260510012037 | 85 | 0 | 0.0 | 2.0 | 0.00 | 0.04 | 0.04 | 64 | 1012.9 |
| 20260510011543 | 85 | 0 | 0.0 | 2.0 | 0.00 | 0.04 | 0.04 | 63 | 1012.8 |
| 20260510011036 | 86 | 0 | 0.0 | 2.0 | 0.00 | 0.04 | 0.04 | 62 | 1012.8 |
| 20260510010536 | 86 | 0 | 0.0 | 2.0 | 0.00 | 0.04 | 0.04 | 62 | 1012.8 |
| 20260510005536 | 87 | 0 | 0.0 | 3.0 | 0.00 | 0.04 | 0.04 | 61 | 1012.6 |
| 20260510005036 | 87 | 0 | 0.0 | 3.0 | 0.00 | 0.04 | 0.04 | 60 | 1012.5 |
| 20260510004540 | 87 | 0 | 0.0 | 3.0 | 0.00 | 0.04 | 0.04 | 60 | 1012.5 |
| 20260510004036 | 87 | 0 | 0.0 | 6.0 | 0.00 | 0.04 | 0.04 | 59 | 1012.4 |
| 20260510003536 | 87 | 132 | 1.0 | 6.0 | 0.00 | 0.04 | 0.04 | 58 | 1012.4 |
| 20260510003050 | 88 | 0 | 0.0 | 8.0 | 0.00 | 0.04 | 0.04 | 58 | 1012.5 |
| 20260510002536 | 88 | 0 | 0.0 | 8.0 | 0.00 | 0.04 | 0.04 | 57 | 1012.4 |
| 20260510002036 | 88 | 0 | 2.0 | 8.0 | 0.00 | 0.04 | 0.04 | 56 | 1012.5 |
| 20260510001545 | 88 | 156 | 1.0 | 7.0 | 0.00 | 0.04 | 0.04 | 55 | 1012.4 |
| 20260510001040 | 88 | 150 | 2.0 | 7.0 | 0.00 | 0.04 | 0.04 | 55 | 1012.4 |
| 20260510000540 | 89 | 80 | 2.0 | 9.0 | 0.00 | 0.04 | 0.04 | 54 | 1012.4 |
| 20260510000046 | 89 | 155 | 4.0 | 9.0 | 0.00 | 0.04 | 0.04 | 53 | 1012.1 |
| 20260509235537 | 89 | 140 | 4.0 | 8.0 | 0.00 | 0.04 | 0.04 | 53 | 1012.2 |